Overview Statistics Trail Chart Weather Telemetry Raw packets
 

This is the latest recevied weather packets stored in our database for station/object W5DNT. If no packets are shown the sender has not sent any weather packets the latest 10 day(s).

<< 31 32 33 34 35 36 37 >>
Time Temp. Humidity Pressure Rain* Wind** Luminosity Snow
1787907642 25° C 69% 1014.5 hPa 0 mm - - -
1787906741 25° C 69% 1014.5 hPa 0 mm - - -
1787905840 25° C 68% 1014.5 hPa 0 mm - - -
1787904949 25° C 68% 1014.5 hPa 0 mm - - -
1787904041 25° C 68% 1014.5 hPa 0 mm - - -
1787903137 25° C 68% 1014.7 hPa 0 mm - - -
1787902243 25° C 67% 1014.6 hPa 0 mm - - -
1787901335 25.56° C 67% 1014.7 hPa 0 mm - - -
1787900434 25.56° C 67% 1014.9 hPa 0 mm - - -
1787899536 26.11° C 68% 1015 hPa 0 mm - - -
1787898630 26.11° C 65% 1014.7 hPa 0 mm - - -
1787897728 26.11° C 65% 1014.7 hPa 0 mm - - -
1787896826 26.67° C 65% 1014.9 hPa 0 mm - - -
1787895941 26.67° C 65% 1015.1 hPa 0 mm - - -
1787895021 27.22° C 64% 1015 hPa 0 mm - - -
1787894120 27.22° C 65% 1015.2 hPa 0 mm - - -
1787893217 27.78° C 64% 1014.9 hPa 0 mm - - -
1787892315 27.78° C 61% 1014.9 hPa 0 mm - - -
1787891414 27.78° C 59% 1014.4 hPa 0 mm - - -
1787890514 27.78° C 58% 1014.2 hPa 0 mm - - -
1787889613 28.33° C 57% 1014.3 hPa 0 mm - - -
1787888712 28.89° C 58% 1014.1 hPa 0 mm - - -
1787887812 29.44° C 54% 1014.1 hPa 0 mm - - -
1787886911 30° C 54% 1014.1 hPa 0 mm - - -
1787886013 31.11° C 49% 1014.1 hPa 0 mm - - -

* Rain latest hour (hover to see other rain measurements)
** Current wind speed in m/s (hover to see current wind gust speed)